{"data":{"norad_id":53994,"epoch":"2026-09-20T22:00:03.000096Z","epoch_age_seconds":50894,"freshness":"FRESH","line1":"1 53994U 22125AG  26263.91670139  .00038999  00000+0  14804-2 0  9993","line2":"2 53994  53.1589  56.0363 0001401  76.5371 140.7101 15.26486638  5807","mean_motion":15.26486638,"eccentricity":0.0001401,"inclination_deg":53.1589,"raan_deg":56.0363,"arg_perigee_deg":76.5371,"mean_anomaly_deg":140.7101,"bstar":0.0014804,"rev_number":580,"period_min":94.334268257119,"perigee_km":485.3632580742,"apogee_km":487.28668031797,"semimajor_km":6864.4619691961,"source":"CELESTRAK","updated_at":"2026-09-21T09:00:33.045240Z"}}